GW4955 Weather Reports


time (UTC)temp
C
wind
direction
speed
KPH
gust
KPH
rain 1hr
cm
rain 24hr
cm
rain mn
cm
humidity
%
barometer
mb
20260507200918 34 312 9.7 12.9 0.00 0.00 0.00 16 1010.8
20260507200414 35 188 11.3 12.9 0.00 0.00 0.00 15 1011.0
20260507195910 35 191 6.4 6.4 0.00 0.00 0.00 16 1011.0
20260507195408 35 184 4.8 9.7 0.00 0.00 0.00 15 1011.4
20260507194904 34 186 4.8 9.7 0.00 0.00 0.00 16 1011.2
20260507194401 33 214 6.4 12.9 0.00 0.00 0.00 16 1011.3
20260507193857 33 189 3.2 9.7 0.00 0.00 0.00 16 1011.3
20260507193355 33 263 14.5 17.7 0.00 0.00 0.00 17 1011.6
20260507192851 33 154 4.8 6.4 0.00 0.00 0.00 16 1011.5
20260507192347 33 173 1.6 9.7 0.00 0.00 0.00 16 1011.6
20260507191843 33 264 1.6 14.5 0.00 0.00 0.00 17 1011.5
20260507191340 34 223 4.8 12.9 0.00 0.00 0.00 16 1011.9
20260507190837 33 202 6.4 9.7 0.00 0.00 0.00 16 1011.9
20260507190335 33 329 6.4 14.5 0.00 0.00 0.00 17 1012.1
20260507185834 33 213 3.2 11.3 0.00 0.00 0.00 16 1011.9
20260507185330 33 32 3.2 6.4 0.00 0.00 0.00 17 1012.2
20260507184827 33 337 3.2 11.3 0.00 0.00 0.00 17 1012.3
20260507184325 33 189 1.6 9.7 0.00 0.00 0.00 17 1012.2
20260507183822 33 8 3.2 4.8 0.00 0.00 0.00 17 1012.1
20260507183319 32 83 4.8 4.8 0.00 0.00 0.00 18 1012.5
20260507182817 32 2 9.7 11.3 0.00 0.00 0.00 18 1012.2
20260507182312 33 173 4.8 16.1 0.00 0.00 0.00 17 1012.5
20260507181808 32 166 3.2 16.1 0.00 0.00 0.00 17 1012.6
20260507181304 32 181 6.4 6.4 0.00 0.00 0.00 18 1012.6
20260507180801 31 293 8.0 14.5 0.00 0.00 0.00 19 1012.6
20260507180258 32 303 9.7 12.9 0.00 0.00 0.00 18 1012.7
20260507175754 32 259 3.2 4.8 0.00 0.00 0.00 18 1012.6
20260507175251 31 220 11.3 12.9 0.00 0.00 0.00 20 1012.8
20260507174748 31 354 4.8 6.4 0.00 0.00 0.00 20 1012.8
20260507174246 32 282 4.8 9.7 0.00 0.00 0.00 20 1012.7
20260507173744 31 214 3.2 6.4 0.00 0.00 0.00 20 1012.8
20260507173241 31 277 4.8 6.4 0.00 0.00 0.00 21 1012.8
20260507172737 30 103 1.6 3.2 0.00 0.00 0.00 22 1013.0
20260507172235 30 265 4.8 6.4 0.00 0.00 0.00 22 1012.9
20260507171734 30 152 1.6 6.4 0.00 0.00 0.00 22 1013.1
20260507171232 30 242 1.6 3.2 0.00 0.00 0.00 24 1013.1
20260507170728 30 131 1.6 4.8 0.00 0.00 0.00 23 1013.0
20260507170225 30 180 1.6 14.5 0.00 0.00 0.00 24 1013.0
20260507165721 29 146 3.2 3.2 0.00 0.00 0.00 24 1013.2
20260507165217 28 122 3.2 6.4 0.00 0.00 0.00 25 1013.0
20260507164713 28 135 0.0 9.7 0.00 0.00 0.00 26 1013.1
20260507164211 27 325 8.0 9.7 0.00 0.00 0.00 26 1013.1
20260507163708 27 314 6.4 6.4 0.00 0.00 0.00 26 1013.1
20260507163206 27 268 3.2 6.4 0.00 0.00 0.00 26 1013.2
20260507162701 27 302 3.2 6.4 0.00 0.00 0.00 25 1013.1
20260507162157 27 0 3.2 4.8 0.00 0.00 0.00 24 1013.2
20260507161654 27 54 3.2 3.2 0.00 0.00 0.00 25 1013.2
20260507161150 27 181 3.2 3.2 0.00 0.00 0.00 25 1013.2
20260507160647 27 166 1.6 4.8 0.00 0.00 0.00 24 1013.2
20260507160144 27 151 0.0 1.6 0.00 0.00 0.00 24 1013.3
20260507155639 26 140 0.0 0.0 0.00 0.00 0.00 25 1013.3
20260507155136 26 331 3.2 3.2 0.00 0.00 0.00 25 1013.2
20260507154632 26 277 3.2 3.2 0.00 0.00 0.00 25 1013.4
20260507154130 25 137 0.0 1.6 0.00 0.00 0.00 25 1013.4
20260507153626 25 156 1.6 1.6 0.00 0.00 0.00 26 1013.3
20260507153123 25 105 0.0 3.2 0.00 0.00 0.00 26 1013.4
20260507152619 25 88 3.2 3.2 0.00 0.00 0.00 26 1013.4
20260507152115 25 100 1.6 3.2 0.00 0.00 0.00 25 1013.2
20260507151611 25 141 0.0 1.6 0.00 0.00 0.00 26 1013.1
20260507151109 23 120 1.6 1.6 0.00 0.00 0.00 27 1013.1
20260507150606 23 75 1.6 3.2 0.00 0.00 0.00 28 1013.3
20260507145557 24 128 1.6 1.6 0.00 0.00 0.00 27 1013.3
20260507145055 23 123 0.0 1.6 0.00 0.00 0.00 27 1013.1
20260507144551 23 126 0.0 1.6 0.00 0.00 0.00 28 1013.2
20260507144050 23 120 1.6 1.6 0.00 0.00 0.00 27 1013.3
20260507143546 22 137 0.0 1.6 0.00 0.00 0.00 27 1013.4
20260507143044 22 135 0.0 0.0 0.00 0.00 0.00 28 1013.2
20260507142544 22 132 0.0 1.6 0.00 0.00 0.00 28 1013.3
20260507142042 21 131 0.0 1.6 0.00 0.00 0.00 28 1013.1
20260507141537 21 137 0.0 1.6 0.00 0.00 0.00 29 1013.1
20260507141034 21 137 0.0 1.6 0.00 0.00 0.00 29 1013.0
20260507140531 21 119 0.0 1.6 0.00 0.00 0.00 30 1013.1
20260507140029 20 130 0.0 1.6 0.00 0.00 0.00 32 1013.1
20260507135525 18 118 1.6 3.2 0.00 0.00 0.00 34 1013.0
20260507135023 18 115 0.0 1.6 0.00 0.00 0.00 36 1013.0
20260507134519 18 117 1.6 3.2 0.00 0.00 0.00 36 1012.9
20260507134015 17 103 0.0 0.0 0.00 0.00 0.00 37 1012.9
20260507133511 18 101 1.6 3.2 0.00 0.00 0.00 38 1012.7
20260507133010 18 130 0.0 0.0 0.00 0.00 0.00 33 1012.8
20260507132506 18 136 0.0 0.0 0.00 0.00 0.00 34 1012.7
20260507132002 17 136 0.0 0.0 0.00 0.00 0.00 35 1012.8
20260507131459 17 138 0.0 0.0 0.00 0.00 0.00 37 1012.7
20260507130956 16 146 0.0 0.0 0.00 0.00 0.00 37 1012.5
20260507130453 16 160 1.6 3.2 0.00 0.00 0.00 38 1012.4
20260507125952 16 156 0.0 0.0 0.00 0.00 0.00 39 1012.4
20260507125449 16 152 0.0 1.6 0.00 0.00 0.00 38 1012.3
20260507124946 16 162 0.0 0.0 0.00 0.00 0.00 38 1012.5
20260507124443 16 145 0.0 0.0 0.00 0.00 0.00 38 1012.4
20260507123941 16 146 0.0 0.0 0.00 0.00 0.00 38 1012.2
20260507123438 16 146 0.0 0.0 0.00 0.00 0.00 37 1012.3
20260507122934 16 146 0.0 0.0 0.00 0.00 0.00 37 1012.4
20260507122430 16 151 0.0 0.0 0.00 0.00 0.00 37 1012.4
20260507121926 16 159 1.6 1.6 0.00 0.00 0.00 36 1012.3
20260507121421 16 147 0.0 0.0 0.00 0.00 0.00 36 1012.3
20260507120918 16 157 1.6 1.6 0.00 0.00 0.00 36 1012.2
20260507120415 16 161 1.6 3.2 0.00 0.00 0.00 36 1012.4
20260507115911 16 153 1.6 3.2 0.00 0.00 0.00 36 1012.5
20260507115407 16 153 1.6 3.2 0.00 0.00 0.00 36 1012.4
20260507114903 16 161 3.2 3.2 0.00 0.00 0.00 36 1012.3
20260507114400 16 149 3.2 3.2 0.00 0.00 0.00 36 1012.4
20260507113857 16 146 1.6 3.2 0.00 0.00 0.00 36 1012.5
20260507113354 16 142 3.2 3.2 0.00 0.00 0.00 35 1012.7
20260507112851 17 148 1.6 3.2 0.00 0.00 0.00 36 1012.5
20260507112349 17 158 3.2 3.2 0.00 0.00 0.00 35 1012.4
20260507111846 16 141 1.6 3.2 0.00 0.00 0.00 36 1012.4
20260507111343 16 129 1.6 3.2 0.00 0.00 0.00 36 1012.5
20260507110839 17 133 1.6 3.2 0.00 0.00 0.00 35 1012.5
20260507110335 17 144 1.6 3.2 0.00 0.00 0.00 35 1012.6
20260507105832 17 150 1.6 3.2 0.00 0.00 0.00 35 1012.5
20260507105329 17 150 1.6 3.2 0.00 0.00 0.00 35 1012.6
20260507104826 17 138 1.6 1.6 0.00 0.00 0.00 35 1012.6
20260507104322 17 138 0.0 0.0 0.00 0.00 0.00 35 1012.7
20260507103818 17 140 0.0 1.6 0.00 0.00 0.00 35 1012.7
20260507103315 17 146 1.6 3.2 0.00 0.00 0.00 35 1012.8
20260507102811 17 140 1.6 3.2 0.00 0.00 0.00 35 1012.5
20260507102308 17 150 3.2 3.2 0.00 0.00 0.00 35 1012.4
20260507101804 17 151 1.6 1.6 0.00 0.00 0.00 36 1012.6
20260507101305 17 150 1.6 3.2 0.00 0.00 0.00 35 1012.7
20260507100802 17 145 1.6 3.2 0.00 0.00 0.00 35 1012.8
20260507100300 17 158 3.2 3.2 0.00 0.00 0.00 35 1012.6
20260507095758 17 154 1.6 1.6 0.00 0.00 0.00 35 1012.5
20260507095254 17 142 0.0 0.0 0.00 0.00 0.00 35 1012.5
20260507094751 18 138 0.0 0.0 0.00 0.00 0.00 35 1012.7
20260507094248 18 133 0.0 0.0 0.00 0.00 0.00 35 1012.7
20260507093745 18 132 0.0 0.0 0.00 0.00 0.00 35 1012.6
20260507093243 18 120 0.0 0.0 0.00 0.00 0.00 36 1012.8
20260507092741 18 100 1.6 1.6 0.00 0.00 0.00 35 1012.7
20260507092237 18 103 1.6 4.8 0.00 0.00 0.00 34 1012.7
20260507091733 18 139 0.0 1.6 0.00 0.00 0.00 34 1012.7
20260507091230 18 137 0.0 0.0 0.00 0.00 0.00 33 1012.6
20260507090725 18 145 1.6 1.6 0.00 0.00 0.00 33 1012.7
20260507090222 19 159 3.2 3.2 0.00 0.00 0.00 33 1012.7
20260507085719 18 144 0.0 0.0 0.00 0.00 0.00 33 1012.7
20260507085216 18 145 0.0 0.0 0.00 0.00 0.00 34 1012.7
20260507084713 18 141 0.0 0.0 0.00 0.00 0.00 34 1012.9
20260507084210 18 146 1.6 1.6 0.00 0.00 0.00 33 1012.7
20260507083707 19 152 3.2 3.2 0.00 0.00 0.00 32 1012.8
20260507083204 19 151 3.2 3.2 0.00 0.00 0.00 32 1012.9
20260507082700 19 160 1.6 1.6 0.00 0.00 0.00 32 1012.7
20260507082156 19 145 3.2 3.2 0.00 0.00 0.00 32 1013.1
20260507081653 19 141 3.2 4.8 0.00 0.00 0.00 32 1012.9
20260507081149 19 150 0.0 0.0 0.00 0.00 0.00 33 1013.0
20260507080646 19 142 0.0 0.0 0.00 0.00 0.00 32 1013.1
20260507080142 19 147 0.0 0.0 0.00 0.00 0.00 32 1013.1
20260507075636 19 154 1.6 1.6 0.00 0.00 0.00 31 1013.2
20260507075133 20 147 1.6 3.2 0.00 0.00 0.00 30 1013.2
20260507074630 20 141 1.6 3.2 0.00 0.00 0.00 30 1013.1
20260507074128 20 158 1.6 1.6 0.00 0.00 0.00 30 1013.3
20260507073624 20 156 1.6 1.6 0.00 0.00 0.00 30 1013.0
20260507073121 20 154 1.6 1.6 0.00 0.00 0.00 30 1013.1
20260507072618 20 157 1.6 3.2 0.00 0.00 0.00 30 1013.1
20260507072115 20 148 0.0 3.2 0.00 0.00 0.00 31 1013.2
20260507071613 21 151 3.2 4.8 0.00 0.00 0.00 31 1013.1
20260507071109 21 146 0.0 0.0 0.00 0.00 0.00 32 1013.3
20260507070606 21 147 0.0 0.0 0.00 0.00 0.00 32 1013.1
20260507070103 21 155 1.6 1.6 0.00 0.00 0.00 32 1013.4
20260507065559 21 180 3.2 3.2 0.00 0.00 0.00 32 1013.3
20260507065057 21 167 1.6 1.6 0.00 0.00 0.00 32 1013.1
20260507064555 21 152 0.0 1.6 0.00 0.00 0.00 33 1013.2
20260507064053 21 154 1.6 1.6 0.00 0.00 0.00 33 1013.4
20260507063550 21 156 1.6 3.2 0.00 0.00 0.00 33 1013.3
20260507063047 21 165 1.6 3.2 0.00 0.00 0.00 32 1013.4
20260507062543 22 170 3.2 3.2 0.00 0.00 0.00 33 1013.5
20260507062041 22 169 3.2 4.8 0.00 0.00 0.00 32 1013.2
20260507061539 23 157 1.6 3.2 0.00 0.00 0.00 29 1013.3
20260507061037 23 235 3.2 4.8 0.00 0.00 0.00 29 1013.1
20260507060534 23 254 4.8 9.7 0.00 0.00 0.00 29 1013.3
20260507060031 23 266 6.4 6.4 0.00 0.00 0.00 29 1013.3
20260507055526 23 271 4.8 6.4 0.00 0.00 0.00 30 1013.2
20260507055022 23 264 6.4 6.4 0.00 0.00 0.00 29 1013.2
20260507054519 23 256 4.8 9.7 0.00 0.00 0.00 29 1013.2
20260507054016 23 246 6.4 6.4 0.00 0.00 0.00 29 1013.3
20260507053514 23 266 6.4 6.4 0.00 0.00 0.00 29 1013.3
20260507053012 23 268 8.0 9.7 0.00 0.00 0.00 29 1013.2
20260507052509 24 233 6.4 9.7 0.00 0.00 0.00 28 1013.4
20260507052006 24 242 6.4 9.7 0.00 0.00 0.00 29 1013.2
20260507051504 24 279 6.4 9.7 0.00 0.00 0.00 29 1013.3
20260507051000 24 283 6.4 11.3 0.00 0.00 0.00 29 1013.4
20260507050456 24 278 6.4 9.7 0.00 0.00 0.00 29 1013.2
20260507045953 24 213 6.4 11.3 0.00 0.00 0.00 29 1013.3
20260507045450 24 258 8.0 11.3 0.00 0.00 0.00 29 1013.5
20260507044947 24 268 8.0 9.7 0.00 0.00 0.00 29 1013.3
20260507044444 24 223 4.8 6.4 0.00 0.00 0.00 29 1013.2
20260507043940 25 257 4.8 9.7 0.00 0.00 0.00 28 1013.2
20260507043436 25 278 4.8 9.7 0.00 0.00 0.00 28 1013.1
20260507042933 25 248 6.4 9.7 0.00 0.00 0.00 28 1013.2
20260507042430 25 208 3.2 9.7 0.00 0.00 0.00 27 1013.2
20260507041925 25 241 4.8 9.7 0.00 0.00 0.00 27 1013.2
20260507041422 25 226 4.8 4.8 0.00 0.00 0.00 27 1013.0
20260507040920 25 255 3.2 11.3 0.00 0.00 0.00 27 1012.9
20260507040415 25 255 8.0 11.3 0.00 0.00 0.00 27 1013.0
20260507035911 25 275 4.8 6.4 0.00 0.00 0.00 28 1013.0
20260507035408 25 267 4.8 11.3 0.00 0.00 0.00 28 1012.9
20260507034905 25 251 4.8 9.7 0.00 0.00 0.00 27 1012.9
20260507034402 25 258 6.4 11.3 0.00 0.00 0.00 26 1013.0
20260507033900 26 259 4.8 9.7 0.00 0.00 0.00 26 1012.8
20260507033358 26 218 4.8 6.4 0.00 0.00 0.00 25 1012.9
20260507032854 26 162 3.2 4.8 0.00 0.00 0.00 25 1012.9
20260507032351 26 199 3.2 6.4 0.00 0.00 0.00 24 1012.9
20260507031847 26 185 3.2 3.2 0.00 0.00 0.00 24 1012.6
20260507031344 26 174 1.6 3.2 0.00 0.00 0.00 23 1012.5
20260507030840 26 175 1.6 4.8 0.00 0.00 0.00 22 1012.5
20260507030338 26 194 4.8 6.4 0.00 0.00 0.00 22 1012.5
20260507025835 26 203 3.2 3.2 0.00 0.00 0.00 21 1012.6
20260507025332 26 178 1.6 1.6 0.00 0.00 0.00 21 1012.3
20260507024830 26 161 0.0 0.0 0.00 0.00 0.00 20 1012.2
20260507024327 27 161 0.0 0.0 0.00 0.00 0.00 20 1012.2
20260507023822 27 173 1.6 3.2 0.00 0.00 0.00 20 1012.2
20260507023319 27 159 1.6 3.2 0.00 0.00 0.00 19 1012.2
20260507022816 27 175 4.8 4.8 0.00 0.00 0.00 19 1012.1
20260507022312 27 172 3.2 4.8 0.00 0.00 0.00 18 1012.1
20260507021808 28 191 1.6 4.8 0.00 0.00 0.00 18 1012.0
20260507021304 28 191 3.2 4.8 0.00 0.00 0.00 18 1012.0
20260507020802 28 199 3.2 4.8 0.00 0.00 0.00 18 1011.9
20260507020258 28 182 3.2 6.4 0.00 0.00 0.00 18 1012.0
20260507015756 28 185 3.2 9.7 0.00 0.00 0.00 17 1011.8
20260507015253 29 185 4.8 9.7 0.00 0.00 0.00 17 1011.9
20260507014750 29 177 1.6 3.2 0.00 0.00 0.00 18 1012.1
20260507014246 29 157 1.6 3.2 0.00 0.00 0.00 18 1012.0
20260507013743 29 172 1.6 4.8 0.00 0.00 0.00 18 1012.0
20260507013242 29 183 3.2 6.4 0.00 0.00 0.00 18 1011.9
20260507012739 29 184 6.4 6.4 0.00 0.00 0.00 18 1011.8
20260507012234 29 202 3.2 9.7 0.00 0.00 0.00 18 1011.8
20260507011732 29 198 1.6 4.8 0.00 0.00 0.00 17 1011.9
20260507011228 29 144 4.8 6.4 0.00 0.00 0.00 17 1011.8
20260507010727 29 129 1.6 6.4 0.00 0.00 0.00 17 1011.8
20260507010223 29 140 1.6 9.7 0.00 0.00 0.00 17 1011.8
20260507005721 30 186 9.7 11.3 0.00 0.00 0.00 17 1012.0
20260507005217 30 164 4.8 6.4 0.00 0.00 0.00 17 1011.8
20260507004714 30 149 1.6 1.6 0.00 0.00 0.00 17 1012.0
20260507004212 30 188 6.4 12.9 0.00 0.00 0.00 17 1012.0
20260507003708 30 156 3.2 6.4 0.00 0.00 0.00 17 1011.8
20260507003203 30 163 4.8 6.4 0.00 0.00 0.00 17 1011.8
20260507002659 30 144 3.2 6.4 0.00 0.00 0.00 17 1011.8
20260507002155 30 90 4.8 9.7 0.00 0.00 0.00 17 1011.8
20260507001652 30 165 3.2 6.4 0.00 0.00 0.00 17 1011.7
20260507001150 30 154 4.8 11.3 0.00 0.00 0.00 17 1011.9
20260507000646 30 134 4.8 11.3 0.00 0.00 0.00 17 1012.0
20260507000141 30 205 9.7 12.9 0.00 0.00 0.00 16 1012.0
20260506235639 31 163 4.8 6.4 0.00 0.00 0.00 16 1011.9
20260506235139 31 165 0.0 3.2 0.00 0.00 0.00 16 1011.8
20260506234637 31 160 0.0 16.1 0.00 0.00 0.00 17 1012.0
20260506234133 30 147 1.6 11.3 0.00 0.00 0.00 17 1011.9
20260506233630 30 300 4.8 4.8 0.00 0.00 0.00 17 1011.9
20260506233127 30 203 3.2 6.4 0.00 0.00 0.00 17 1012.0
20260506232623 30 147 1.6 6.4 0.00 0.00 0.00 18 1012.1
20260506232119 30 304 3.2 6.4 0.00 0.00 0.00 18 1012.1
20260506231616 29 141 6.4 9.7 0.00 0.00 0.00 18 1012.0
20260506231115 29 56 3.2 9.7 0.00 0.00 0.00 18 1012.1
20260506230611 30 150 3.2 6.4 0.00 0.00 0.00 18 1012.4
20260506230109 30 159 0.0 3.2 0.00 0.00 0.00 18 1012.4
20260506225605 30 280 8.0 14.5 0.00 0.00 0.00 18 1012.4
20260506225101 31 287 4.8 6.4 0.00 0.00 0.00 17 1012.3
20260506224558 30 156 1.6 3.2 0.00 0.00 0.00 18 1012.5
20260506224054 30 148 0.0 11.3 0.00 0.00 0.00 18 1012.4
20260506223550 30 147 1.6 9.7 0.00 0.00 0.00 18 1012.6
20260506223047 30 120 3.2 4.8 0.00 0.00 0.00 18 1012.7
20260506222544 30 144 3.2 6.4 0.00 0.00 0.00 18 1012.9
20260506222040 30 139 0.0 3.2 0.00 0.00 0.00 18 1012.9
20260506221538 28 152 1.6 4.8 0.00 0.00 0.00 19 1013.1
20260506221036 29 310 6.4 9.7 0.00 0.00 0.00 19 1013.2
20260506220532 29 300 4.8 11.3 0.00 0.00 0.00 18 1013.1
20260506220028 28 313 8.0 12.9 0.00 0.00 0.00 19 1013.2
20260506215525 30 281 4.8 9.7 0.00 0.00 0.00 19 1013.4
20260506215021 30 252 4.8 9.7 0.00 0.00 0.00 18 1013.4
20260506214518 28 137 1.6 6.4 0.00 0.00 0.00 19 1013.4
20260506214015 28 60 4.8 11.3 0.00 0.00 0.00 18 1013.6
20260506213513 29 42 3.2 6.4 0.00 0.00 0.00 18 1013.8
20260506213010 29 89 1.6 4.8 0.00 0.00 0.00 18 1013.7
20260506212506 29 213 3.2 6.4 0.00 0.00 0.00 18 1013.9
20260506212002 28 111 0.0 3.2 0.00 0.00 0.00 18 1013.8
20260506211457 29 175 3.2 9.7 0.00 0.00 0.00 18 1014.0
20260506210954 28 189 4.8 6.4 0.00 0.00 0.00 19 1013.8
20260506210450 28 294 6.4 11.3 0.00 0.00 0.00 19 1013.8
20260506205947 28 298 11.3 14.5 0.00 0.00 0.00 19 1013.8
20260506205443 28 285 6.4 11.3 0.00 0.00 0.00 19 1014.3
20260506204939 28 31 3.2 14.5 0.00 0.00 0.00 20 1014.2
20260506204438 28 308 11.3 16.1 0.00 0.00 0.00 20 1014.1
20260506203935 28 273 9.7 12.9 0.00 0.00 0.00 20 1014.3
20260506203432 28 280 9.7 11.3 0.00 0.00 0.00 20 1014.3
20260506202929 28 201 4.8 6.4 0.00 0.00 0.00 19 1014.4
20260506202426 28 154 1.6 6.4 0.00 0.00 0.00 19 1014.4
20260506201922 27 203 4.8 11.3 0.00 0.00 0.00 21 1014.4
20260506201420 27 187 3.2 9.7 0.00 0.00 0.00 20 1014.6